Location: ??????
(30.0081°N, 31.2109°E)
Time: 07:15:41
(UTC+00:00)

Cosmos 44 Rocket - Pass Details

Date: 03 March 2021
Orbit: 636 x 754 km, 65.1° (Epoch: 15 April)

Event Time Altitude Azimuth Distance (km) Brightness Sun altitude
Rises 16:45:38 0° 342° (NNW) 3,206 7.0 -11.6°
Reaches altitude 10° 16:48:11 10° 350° (N) 2,277 6.1 -12.2°
Maximum altitude 16:53:03 38° 59° (ENE) 1,126 4.0 -13.2°
Enters shadow 16:56:39 16° 120° (ESE) 1,839 5.0 -14.0°
